LUSEX was launched on May 30, 2016 at 03:17 UTC.
LUSEX
1 41557U 16033B 16152.77798618 -.00000074 00000-0 00000+0 0 9994
2 41557 97.4972 225.8884 0013348 271.9819 211.6087 15.25215850 251
Above is the current TLE for LUSEX as of date/time of this email, assuming
that the NORAD CAT ID is in fact 41557. Once all the objects separate the
NORAD CAT ID may change. Since in the end, we try to go with the SpaceTrack
ID number because it causes less confusion in the long term, there is a
remote chance we may have to change the NORAD CAT ID. Hopefully, we do in
fact have the right ID number and no change will be necessary.
Ray Hoad
WA5QGD